This demonstration page uses our WeatherBlox Daily Observations layout. Learn more.

41.55636, -103.73856

Hourly Observations for July 26, 2019

Temp ( °F °C ) Dew Point ( °F °C ) Humidity (%) Winds ( mph kmh ) Pressure ( in mb ) Visibility ( mi km ) Precip ( " mm )
12:58 am 00:58 Clear 82 27.8 57 13.7 42 42 ESE 12 19 29.93 1014 10 16.0934 0 0
1:58 am 01:58 Clear 76 24.6 57 13.9 51 51 SSE 10 17 29.95 1014 10 16.0934 0 0
2:58 am 02:58 Clear 72 22.2 57 14 60 60 S 8 13 29.96 1015 10 16.0934 0 0
3:58 am 03:58 Clear 71 21.7 56 13.4 59 59 S 10 17 29.96 1014 10 16.0934 0 0
4:58 am 04:58 Clear 69 20.8 56 13.2 62 62 S 13 20 29.96 1014 10 16.0934 0 0
5:58 am 05:58 Clear 66 19 55 12.7 67 67 S 9 15 29.96 1015 10 16.0934 0 0
7:58 am 07:58 Clear 64 18 55 12.5 70 70 SSW 10 17 29.95 1014 10 16.0934 0 0
8:58 am 08:58 Clear 66 19.1 52 11.2 60 60 SW 12 19 29.95 1014 10 16.0934 0 0
9:58 am 09:58 Clear 63 17 53 11.7 71 71 SW 14 22 29.95 1014 10 16.0934 0 0
10:58 am 10:58 Clear 66 18.7 51 10.8 60 60 SW 15 24 29.94 1014 10 16.0934 0 0
11:58 am 11:58 Sunny 63 17.1 51 10.3 64 64 WSW 12 19 29.97 1015 10 16.0934 0 0
12:58 pm 12:58 Sunny 67 19.7 53 11.4 59 59 W 7 11 29.98 1015 10 16.0934 0 0
1:58 pm 13:58 Sunny 74 23.5 48 8.8 39 39 WNW 10 17 30.01 1016 10 16.0934 0 0
2:58 pm 14:58 Sunny 73 23 55 12.9 53 53 NW 17 28 30.02 1017 10 16.0934 0 0
3:58 pm 15:58 Sunny 75 23.8 58 14.3 55 55 NNW 13 20 30.04 1017 10 16.0934 0 0
4:58 pm 16:58 Sunny 77 24.9 58 14.7 53 53 N 15 24 30.04 1017 10 16.0934 0 0
5:58 pm 17:58 Sunny 80 26.6 58 14.5 47 47 NNW 9 15 30.04 1017 10 16.0934 0 0
6:58 pm 18:58 Sunny 81 27.2 60 15.7 49 49 N 8 13 30.04 1017 10 16.0934 0 0
7:58 pm 19:58 Sunny 83 28.2 58 14.5 43 43 N 7 11 30.04 1017 10 16.0934 0 0
8:58 pm 20:58 Sunny 83 28.4 58 14.2 42 42 Calm 30.01 1016 10 16.0934 0 0
9:58 pm 21:58 Sunny 85 29.4 55 12.5 35 35 NNW 6 9 30 1016 10 16.0934 0 0
10:58 pm 22:58 Sunny 86 29.8 53 11.6 32 32 ENE 5 7 29.98 1015 10 16.0934 0 0
11:58 pm 23:58 Mostly Sunny 83 28.4 49 9.7 31 31 Calm 29.99 1016 10 16.0934 0 0

Powered by AerisWeather